Time,TemperatureF,DewpointF,PressureIn,WindDirection,WindDirectionDegrees,WindSpeedMPH,WindSpeedGustMPH,Humidity,HourlyPrecipIn,Conditions,Clouds,dailyrainin,SoftwareType,DateUTC
2013-02-12 00:06:00,31.8,22.0,30.14,WNW,293,0.0,0.0,68,0.00,,,0.00,weatherlink.com 1.10,2013-02-12 06:06:00,
2013-02-12 00:21:00,31.0,22.0,30.15,WNW,293,0.0,0.0,69,0.00,,,0.00,weatherlink.com 1.10,2013-02-12 06:21:00,
2013-02-12 00:36:00,30.1,21.0,30.15,WNW,292,0.0,0.0,70,0.00,,,0.00,weatherlink.com 1.10,2013-02-12 06:36:00,
2013-02-12 00:51:00,30.0,22.0,30.15,WNW,293,0.0,0.0,71,0.00,,,0.00,weatherlink.com 1.10,2013-02-12 06:51:00,
2013-02-12 01:06:00,29.5,21.0,30.14,WNW,292,0.0,0.0,71,0.00,,,0.00,weatherlink.com 1.10,2013-02-12 07:06:00,
2013-02-12 01:22:00,28.6,21.0,30.14,WNW,293,0.0,0.0,74,0.00,,,0.00,weatherlink.com 1.10,2013-02-12 07:22:00,
2013-02-12 01:37:00,28.3,22.0,30.14,WNW,292,0.0,0.0,76,0.00,,,0.00,weatherlink.com 1.10,2013-02-12 07:37:00,
2013-02-12 01:52:00,28.7,22.0,30.15,WNW,292,0.0,0.0,77,0.00,,,0.00,weatherlink.com 1.10,2013-02-12 07:52:00,
2013-02-12 02:07:00,28.3,22.0,30.15,WNW,292,0.0,0.0,77,0.00,,,0.00,weatherlink.com 1.10,2013-02-12 08:07:00,
2013-02-12 02:37:00,27.6,22.0,30.13,WNW,292,0.0,0.0,79,0.00,,,0.00,weatherlink.com 1.10,2013-02-12 08:37:00,
2013-02-12 02:52:00,27.2,22.0,30.12,WNW,293,0.0,0.0,80,0.00,,,0.00,weatherlink.com 1.10,2013-02-12 08:52:00,
2013-02-12 03:07:00,26.9,22.0,30.12,WNW,293,0.0,0.0,80,0.00,,,0.00,weatherlink.com 1.10,2013-02-12 09:07:00,
2013-02-12 03:22:00,26.6,22.0,30.12,WNW,293,0.0,0.0,82,0.00,,,0.00,weatherlink.com 1.10,2013-02-12 09:22:00,
2013-02-12 03:37:00,26.5,22.0,30.12,WNW,293,0.0,0.0,82,0.00,,,0.00,weatherlink.com 1.10,2013-02-12 09:37:00,
2013-02-12 03:52:00,27.1,22.0,30.12,WNW,293,0.0,0.0,80,0.00,,,0.00,weatherlink.com 1.10,2013-02-12 09:52:00,
2013-02-12 04:07:00,26.9,22.0,30.12,WNW,293,0.0,0.0,81,0.00,,,0.00,weatherlink.com 1.10,2013-02-12 10:07:00,
2013-02-12 04:22:00,26.3,22.0,30.12,WNW,293,0.0,0.0,82,0.00,,,0.00,weatherlink.com 1.10,2013-02-12 10:22:00,
2013-02-12 04:38:00,26.1,22.0,30.12,WNW,293,0.0,0.0,84,0.00,,,0.00,weatherlink.com 1.10,2013-02-12 10:38:00,
2013-02-12 04:52:00,25.6,21.0,30.12,WNW,293,0.0,0.0,84,0.00,,,0.00,weatherlink.com 1.10,2013-02-12 10:52:00,
2013-02-12 05:07:00,25.1,21.0,30.12,WNW,293,0.0,0.0,85,0.00,,,0.00,weatherlink.com 1.10,2013-02-12 11:07:00,
2013-02-12 05:22:00,25.8,22.0,30.12,WNW,293,0.0,0.0,85,0.00,,,0.00,weatherlink.com 1.10,2013-02-12 11:22:00,
2013-02-12 05:37:00,26.3,22.0,30.12,WNW,293,0.0,0.0,85,0.00,,,0.00,weatherlink.com 1.10,2013-02-12 11:37:00,
2013-02-12 05:52:00,26.6,23.0,30.13,WNW,293,0.0,0.0,85,0.00,,,0.00,weatherlink.com 1.10,2013-02-12 11:52:00,
2013-02-12 06:07:00,26.6,23.0,30.12,WNW,293,0.0,0.0,85,0.00,,,0.00,weatherlink.com 1.10,2013-02-12 12:07:00,
2013-02-12 06:22:00,26.4,23.0,30.11,WNW,293,0.0,0.0,85,0.00,,,0.00,weatherlink.com 1.10,2013-02-12 12:22:00,
2013-02-12 06:37:00,26.3,22.0,30.11,WNW,293,0.0,0.0,85,0.00,,,0.00,weatherlink.com 1.10,2013-02-12 12:37:00,
2013-02-12 06:53:00,26.2,23.0,30.10,WNW,293,0.0,0.0,86,0.00,,,0.00,weatherlink.com 1.10,2013-02-12 12:53:00,
2013-02-12 07:08:00,26.6,23.0,30.11,WNW,293,0.0,0.0,86,0.00,,,0.00,weatherlink.com 1.10,2013-02-12 13:08:00,
2013-02-12 07:23:00,26.9,23.0,30.11,WNW,293,0.0,0.0,85,0.00,,,0.00,weatherlink.com 1.10,2013-02-12 13:23:00,
2013-02-12 07:38:00,27.1,23.0,30.10,WNW,293,0.0,0.0,85,0.00,,,0.00,weatherlink.com 1.10,2013-02-12 13:38:00,
2013-02-12 07:53:00,27.4,24.0,30.11,WNW,292,0.0,0.0,85,0.00,,,0.00,weatherlink.com 1.10,2013-02-12 13:53:00,
2013-02-12 08:08:00,28.0,24.0,30.13,WNW,293,0.0,0.0,85,0.00,,,0.00,weatherlink.com 1.10,2013-02-12 14:08:00,
2013-02-12 08:23:00,28.9,24.0,30.13,SSW,201,0.0,0.0,83,0.00,,,0.00,weatherlink.com 1.10,2013-02-12 14:23:00,
2013-02-12 08:38:00,29.5,25.0,30.11,SSW,200,0.0,0.0,82,0.00,,,0.00,weatherlink.com 1.10,2013-02-12 14:38:00,
2013-02-12 08:53:00,30.1,25.0,30.12,SSW,200,0.0,0.0,80,0.00,,,0.00,weatherlink.com 1.10,2013-02-12 14:53:00,
2013-02-12 09:08:00,30.8,25.0,30.11,SSW,200,0.0,0.0,79,0.00,,,0.00,weatherlink.com 1.10,2013-02-12 15:08:00,
2013-02-12 09:23:00,31.4,25.0,30.10,SSE,167,0.0,0.0,78,0.00,,,0.00,weatherlink.com 1.10,2013-02-12 15:23:00,
2013-02-12 09:38:00,32.0,26.0,30.10,SSE,160,0.0,1.0,77,0.00,,,0.00,weatherlink.com 1.10,2013-02-12 15:38:00,
2013-02-12 09:53:00,32.6,26.0,30.10,ESE,117,0.0,1.0,76,0.00,,,0.00,weatherlink.com 1.10,2013-02-12 15:53:00,
2013-02-12 10:08:00,32.9,26.0,30.10,SSW,204,0.0,2.0,75,0.00,,,0.00,weatherlink.com 1.10,2013-02-12 16:08:00,
2013-02-12 10:23:00,33.6,26.0,30.10,ESE,121,0.0,1.0,75,0.00,,,0.00,weatherlink.com 1.10,2013-02-12 16:23:00,
2013-02-12 10:38:00,34.0,27.0,30.10,East,84,0.0,1.0,75,0.00,,,0.00,weatherlink.com 1.10,2013-02-12 16:38:00,
2013-02-12 10:53:00,34.3,27.0,30.10,SSW,205,0.0,3.0,74,0.00,,,0.00,weatherlink.com 1.10,2013-02-12 16:53:00,
2013-02-12 11:08:00,35.3,27.0,30.09,SSW,204,0.0,1.0,72,0.00,,,0.00,weatherlink.com 1.10,2013-02-12 17:08:00,
2013-02-12 11:23:00,35.7,27.0,30.09,SE,141,1.0,3.0,71,0.00,,,0.00,weatherlink.com 1.10,2013-02-12 17:23:00,
2013-02-12 11:38:00,36.3,27.0,30.08,ESE,114,0.0,2.0,70,0.00,,,0.00,weatherlink.com 1.10,2013-02-12 17:38:00,
2013-02-12 11:53:00,37.2,27.0,30.08,South,172,0.0,2.0,68,0.00,,,0.00,weatherlink.com 1.10,2013-02-12 17:53:00,
2013-02-12 12:08:00,37.7,28.0,30.07,SE,133,0.0,1.0,67,0.00,,,0.00,weatherlink.com 1.10,2013-02-12 18:08:00,
2013-02-12 12:38:00,38.9,27.0,30.07,SE,143,0.0,1.0,63,0.00,,,0.00,weatherlink.com 1.10,2013-02-12 18:38:00,
2013-02-12 12:53:00,39.3,27.0,30.07,NW,319,0.0,1.0,62,0.00,,,0.00,weatherlink.com 1.10,2013-02-12 18:53:00,
2013-02-12 13:08:00,40.5,28.0,30.07,SSE,159,0.0,0.0,62,0.00,,,0.00,weatherlink.com 1.10,2013-02-12 19:08:00,
2013-02-12 13:24:00,41.0,27.0,30.06,ESE,108,0.0,1.0,57,0.00,,,0.00,weatherlink.com 1.10,2013-02-12 19:24:00,
2013-02-12 13:39:00,41.0,26.0,30.05,WNW,300,0.0,1.0,56,0.00,,,0.00,weatherlink.com 1.10,2013-02-12 19:39:00,
2013-02-12 13:54:00,41.3,26.0,30.04,ENE,75,0.0,0.0,55,0.00,,,0.00,weatherlink.com 1.10,2013-02-12 19:54:00,
2013-02-12 14:09:00,41.8,26.0,30.03,SSE,153,0.0,4.0,54,0.00,,,0.00,weatherlink.com 1.10,2013-02-12 20:09:00,
2013-02-12 14:24:00,42.2,26.0,30.02,ESE,103,0.0,2.0,53,0.00,,,0.00,weatherlink.com 1.10,2013-02-12 20:24:00,
2013-02-12 14:39:00,42.5,25.0,30.01,SE,124,0.0,1.0,50,0.00,,,0.00,weatherlink.com 1.10,2013-02-12 20:39:00,
2013-02-12 14:54:00,42.2,24.0,30.01,SE,146,0.0,1.0,49,0.00,,,0.00,weatherlink.com 1.10,2013-02-12 20:54:00,
2013-02-12 15:09:00,42.3,24.0,30.00,WSW,253,0.0,0.0,48,0.00,,,0.00,weatherlink.com 1.10,2013-02-12 21:09:00,
2013-02-12 15:24:00,42.1,24.0,29.99,WSW,248,0.0,0.0,49,0.00,,,0.00,weatherlink.com 1.10,2013-02-12 21:24:00,
2013-02-12 15:39:00,42.5,24.0,29.99,SE,141,0.0,1.0,48,0.00,,,0.00,weatherlink.com 1.10,2013-02-12 21:39:00,
2013-02-12 15:54:00,42.0,23.0,29.98,ESE,110,0.0,1.0,48,0.00,,,0.00,weatherlink.com 1.10,2013-02-12 21:54:00,
2013-02-12 16:24:00,41.8,24.0,29.98,SSW,209,0.0,2.0,50,0.00,,,0.00,weatherlink.com 1.10,2013-02-12 22:24:00,
2013-02-12 16:39:00,41.4,24.0,29.98,SSW,205,0.0,0.0,50,0.00,,,0.00,weatherlink.com 1.10,2013-02-12 22:39:00,
2013-02-12 16:54:00,41.4,23.0,29.97,SSW,204,0.0,0.0,49,0.00,,,0.00,weatherlink.com 1.10,2013-02-12 22:54:00,
2013-02-12 17:09:00,41.3,24.0,29.97,ESE,119,0.0,1.0,51,0.00,,,0.00,weatherlink.com 1.10,2013-02-12 23:09:00,
2013-02-12 17:24:00,41.1,24.0,29.96,SSW,193,0.0,2.0,51,0.00,,,0.00,weatherlink.com 1.10,2013-02-12 23:24:00,
2013-02-12 17:39:00,40.9,25.0,29.96,ESE,120,0.0,1.0,53,0.00,,,0.00,weatherlink.com 1.10,2013-02-12 23:39:00,
2013-02-12 17:54:00,40.6,25.0,29.96,SE,134,0.0,1.0,54,0.00,,,0.00,weatherlink.com 1.10,2013-02-12 23:54:00,
2013-02-12 18:09:00,40.4,24.0,29.96,SE,135,0.0,0.0,53,0.00,,,0.00,weatherlink.com 1.10,2013-02-13 00:09:00,
2013-02-12 18:24:00,40.1,24.0,29.96,SE,136,0.0,0.0,54,0.00,,,0.00,weatherlink.com 1.10,2013-02-13 00:24:00,
2013-02-12 18:39:00,40.0,25.0,29.96,SE,136,0.0,0.0,56,0.00,,,0.00,weatherlink.com 1.10,2013-02-13 00:39:00,
2013-02-12 18:54:00,39.9,25.0,29.97,SE,135,0.0,0.0,56,0.00,,,0.00,weatherlink.com 1.10,2013-02-13 00:54:00,
2013-02-12 19:09:00,39.8,26.0,29.97,SE,136,0.0,0.0,57,0.00,,,0.00,weatherlink.com 1.10,2013-02-13 01:09:00,
2013-02-12 19:24:00,39.8,26.0,29.97,SE,136,0.0,0.0,57,0.00,,,0.00,weatherlink.com 1.10,2013-02-13 01:24:00,
2013-02-12 19:39:00,39.5,25.0,29.97,SE,135,0.0,0.0,57,0.00,,,0.00,weatherlink.com 1.10,2013-02-13 01:39:00,
2013-02-12 19:54:00,39.3,25.0,29.96,SE,134,0.0,1.0,57,0.00,,,0.00,weatherlink.com 1.10,2013-02-13 01:54:00,
2013-02-12 20:09:00,38.9,25.0,29.96,SE,141,0.0,1.0,58,0.00,,,0.00,weatherlink.com 1.10,2013-02-13 02:09:00,
2013-02-12 20:24:00,38.2,25.0,29.97,SE,141,0.0,0.0,59,0.00,,,0.00,weatherlink.com 1.10,2013-02-13 02:24:00,
2013-02-12 20:39:00,37.5,25.0,29.96,SE,141,0.0,0.0,60,0.00,,,0.00,weatherlink.com 1.10,2013-02-13 02:39:00,
2013-02-12 20:54:00,36.7,25.0,29.97,SE,141,0.0,0.0,62,0.00,,,0.00,weatherlink.com 1.10,2013-02-13 02:54:00,
2013-02-12 21:09:00,36.0,25.0,29.97,SE,141,0.0,0.0,64,0.00,,,0.00,weatherlink.com 1.10,2013-02-13 03:09:00,
2013-02-12 21:24:00,35.2,25.0,29.97,SE,141,0.0,0.0,66,0.00,,,0.00,weatherlink.com 1.10,2013-02-13 03:24:00,
2013-02-12 21:39:00,34.4,25.0,29.97,SE,141,0.0,0.0,68,0.00,,,0.00,weatherlink.com 1.10,2013-02-13 03:39:00,
2013-02-12 21:54:00,34.2,25.0,29.96,SSE,162,0.0,0.0,69,0.00,,,0.00,weatherlink.com 1.10,2013-02-13 03:54:00,
2013-02-12 22:09:00,34.3,25.0,29.96,SSE,162,0.0,1.0,69,0.00,,,0.00,weatherlink.com 1.10,2013-02-13 04:09:00,
2013-02-12 22:24:00,34.2,25.0,29.96,SE,145,0.0,1.0,69,0.00,,,0.00,weatherlink.com 1.10,2013-02-13 04:24:00,
2013-02-12 22:39:00,33.9,25.0,29.95,SE,145,0.0,0.0,69,0.00,,,0.00,weatherlink.com 1.10,2013-02-13 04:39:00,
2013-02-12 22:54:00,33.8,25.0,29.95,SE,128,0.0,1.0,70,0.00,,,0.00,weatherlink.com 1.10,2013-02-13 04:54:00,
2013-02-12 23:09:00,33.7,25.0,29.94,SSE,150,0.0,1.0,71,0.00,,,0.00,weatherlink.com 1.10,2013-02-13 05:09:00,
2013-02-12 23:24:00,33.4,25.0,29.94,SSE,153,0.0,0.0,72,0.00,,,0.00,weatherlink.com 1.10,2013-02-13 05:24:00,
2013-02-12 23:39:00,33.3,25.0,29.94,SSE,153,0.0,0.0,71,0.00,,,0.00,weatherlink.com 1.10,2013-02-13 05:39:00,
2013-02-12 23:54:00,32.9,25.0,29.94,SSE,153,0.0,0.0,72,0.00,,,0.00,weatherlink.com 1.10,2013-02-13 05:54:00,